Location: Strawberry
(45.6646°N, 111.9596°W)
Time: 01:02:24
(UTC+00:00)

Vanguard 1 Rocket - Pass Details

Date: 29 September 2022
Orbit: 650 x 4225 km, 34.3° (Epoch: 05 December)

Event Time Altitude Azimuth Distance (km) Brightness Sun altitude
Rises 05:03:01 0° 244° (WSW) 7,274 12.2 -37.6°
Reaches altitude 10° 05:08:58 10° 239° (WSW) 5,684 11.5 -38.3°
Enters shadow 05:18:03 32° 215° (SW) 3,218 9.9 -39.4°
